MDT,Max TemperatureF,Mean TemperatureF,Min TemperatureF,Max Dew PointF,MeanDew PointF,Min DewpointF,Max Humidity, Mean Humidity, Min Humidity, Max Sea Level PressureIn, Mean Sea Level PressureIn, Min Sea Level PressureIn, Max VisibilityMiles, Mean VisibilityMiles, Min VisibilityMiles, Max Wind SpeedMPH, Mean Wind SpeedMPH, Max Gust SpeedMPH,PrecipitationIn, CloudCover, Events, WindDirDegrees
2011-10-1,76,54,32,37,31,17,82,47,11,30.44,30.20,30.07,10,10,10,15,5,23,0.00,1,,236
2011-10-2,74,54,33,33,31,27,76,47,17,30.36,30.18,30.07,10,10,10,17,4,21,0.00,0,,204
2011-10-3,71,53,34,46,38,28,86,57,28,30.32,30.18,30.07,10,10,5,22,6,32,0.08,3,Rain-Thunderstorm,172
2011-10-4,69,52,35,45,41,36,100,66,32,30.30,30.10,29.88,10,8,0,37,9,45,0.06,5,Fog-Rain-Thunderstorm,197
2011-10-5,62,50,38,41,37,32,93,64,35,30.08,29.88,29.75,10,10,10,25,12,32,0.00,4,,196
2011-10-6,59,47,35,41,33,26,83,62,40,29.82,29.68,29.51,10,9,2,45,20,56,0.02,6,Rain,197
2011-10-7,48,37,25,34,30,25,92,69,45,30.02,29.95,29.81,10,9,2,18,8,24,0.12,7,Rain-Snow,156
2011-10-8,48,40,32,34,31,27,96,71,45,30.15,29.97,29.82,10,6,1,17,6,22,0.13,7,Snow,191
2011-10-9,49,37,24,34,31,22,96,71,46,30.21,30.13,30.03,10,9,4,16,5,17,T,6,Snow,195
2011-10-10,60,40,20,29,24,18,92,60,28,30.22,30.09,29.97,10,10,10,13,4,18,0.00,0,,201
2011-10-11,62,46,30,32,28,26,89,58,27,30.08,29.95,29.84,10,10,10,18,5,22,0.00,4,,349
2011-10-12,68,47,25,27,22,15,85,49,13,30.27,30.09,30.01,10,10,10,17,6,22,0.00,0,,298
2011-10-13,70,47,23,25,21,15,81,48,14,30.21,30.09,29.97,10,10,10,12,2,15,0.00,0,,303
2011-10-14,70,48,25,29,25,22,81,50,18,30.18,30.09,30.01,10,10,10,10,3,14,0.00,0,,221
2011-10-15,72,48,24,28,24,19,81,48,14,30.34,30.16,30.06,10,10,10,13,5,15,0.00,0,,196
2011-10-16,76,50,24,28,21,9,75,42,8,30.31,30.09,29.92,10,10,10,23,8,28,0.00,0,,222
2011-10-17,60,43,26,36,24,18,59,40,21,30.24,30.02,29.85,10,9,2,37,13,47,T,1,Rain,322
2011-10-18,60,39,17,20,14,10,74,44,14,30.35,30.25,30.18,10,10,10,18,5,24,0.00,0,,7
2011-10-19,63,38,13,22,16,8,80,47,14,30.35,30.16,30.03,10,10,10,12,2,15,0.00,0,,184
2011-10-20,65,41,16,18,16,10,77,46,15,30.24,30.10,30.01,10,10,10,12,4,15,0.00,0,,158
2011-10-21,66,42,18,21,15,11,77,45,13,30.35,30.22,30.15,10,10,10,16,3,18,0.00,0,,74
2011-10-22,66,43,19,21,16,11,77,46,15,30.29,30.22,30.14,10,10,10,13,3,17,0.00,0,,224
2011-10-23,68,44,19,21,15,11,74,43,12,30.34,30.24,30.14,10,10,10,10,3,15,0.00,0,,224
2011-10-24,70,44,17,21,16,10,73,43,12,30.34,30.17,29.99,10,10,9,24,7,31,0.00,0,,234
2011-10-25,63,45,27,37,26,17,82,54,25,30.06,29.98,29.89,10,10,10,21,9,25,0.01,3,,217
2011-10-26,51,40,28,40,31,24,92,74,56,30.07,29.93,29.78,10,9,2,28,11,35,0.06,7,Rain-Snow-Thunderstorm,190
2011-10-27,49,37,25,31,26,22,100,71,42,30.16,30.09,29.98,10,10,2,12,4,14,T,6,Snow,274
2011-10-28,52,32,11,27,16,9,96,57,18,30.41,30.29,30.17,10,7,0,9,3,13,0.00,1,Fog,111
2011-10-29,55,33,11,21,13,7,92,54,16,30.38,30.22,30.09,10,10,10,14,3,17,0.00,0,,188
2011-10-30,61,38,14,20,15,12,80,49,17,30.37,30.25,30.17,10,10,10,9,4,12,0.00,0,,210
2011-10-31,63,38,13,23,18,10,81,50,19,30.37,30.17,30.01,10,10,10,12,4,14,0.00,0,,209